Franklin, NC

5:08 AM EDT on May 26, 2018 (GMT -0400)
Franklin

Weather History for K1A5 - January, 2011

Change the Weather History Date:

Sunday, January 16, 2011

  Actual Average (KTOC) Record (KTOC)
Temperature  
Mean Temperature 34 °F -  
Max Temperature 52 °F 51 °F 62 °F (2017)
Min Temperature 17 °F 29 °F 26 °F (2018)
Degree Days  
Heating Degree Days 30    
Moisture  
Dew Point 22 °F    
Average Humidity 73    
Maximum Humidity 90    
Minimum Humidity 39    
Precipitation  
Precipitation 0.00 in - - ()
Sea Level Pressure  
Sea Level Pressure 30.09 in    
Wind  
Wind Speed 0 mph (WNW)    
Max Wind Speed 6 mph    
Max Gust Speed -    
Visibility 10 miles    
Events      
Averages and records for this station are not official NWS values.
T = Trace of Precipitation, MM = Missing Value Source: NWS Daily Summary

Daily Weather History Graph

Daily Weather History Graph

Search for Another Location

Airport or City:

Astronomy

Jan. 16, 2011 Rise Set
Actual Time 7:41 AM EST 5:45 PM EST
Civil Twilight 7:13 AM EST 6:13 PM EST
Nautical Twilight 6:42 AM EST 6:44 PM EST
Astronomical Twilight 6:12 AM EST 7:14 PM EST
Moon 2:37 PM EST (1/16) 4:41 AM EST (1/16)
Length of Visible Light 10h 59m
Length of Day
10h 04m
Waxing Gibbous, 88% of the Moon is Illuminated
Jan 16
Waxing Gibbous
Jan 19
Full
Jan 26
Last Quarter
Feb 2
New
Feb 11
First Quarter

Hourly Weather History & Observations

Time (EST) Temp. Windchill Dew Point Humidity Pressure Visibility Wind Dir Wind Speed Gust Speed Precip Events Conditions
12:20 AM 20.3 °F - 17.6 °F 89% 30.11 in 10.0 mi Calm Calm - N/A   Clear
12:40 AM 20.1 °F - 17.4 °F 89% 30.11 in 10.0 mi Calm Calm - N/A   Clear
1:00 AM 21.0 °F - 18.3 °F 89% 30.12 in 10.0 mi Calm Calm - N/A   Clear
1:20 AM 20.1 °F - 17.6 °F 90% 30.11 in 10.0 mi Calm Calm - N/A   Clear
1:40 AM 20.7 °F - 17.6 °F 88% 30.11 in 10.0 mi Calm Calm - N/A   Clear
2:00 AM 20.1 °F - 17.2 °F 89% 30.12 in 10.0 mi Calm Calm - N/A   Clear
2:20 AM 20.3 °F - 17.6 °F 89% 30.12 in 10.0 mi Calm Calm - N/A   Clear
2:40 AM 21.0 °F - 18.3 °F 89% 30.13 in 10.0 mi Calm Calm - N/A   Clear
3:00 AM 20.5 °F - 18.0 °F 90% 30.13 in 10.0 mi Calm Calm - N/A   Clear
3:20 AM 20.1 °F - 17.2 °F 89% 30.13 in 10.0 mi Calm Calm - N/A   Clear
3:40 AM 19.4 °F - 16.7 °F 89% 30.13 in 10.0 mi Calm Calm - N/A   Clear
4:00 AM 19.0 °F - 16.3 °F 89% 30.13 in 10.0 mi Calm Calm - N/A   Clear
4:20 AM 19.2 °F - 16.5 °F 89% 30.12 in 10.0 mi Calm Calm - N/A   Clear
4:40 AM 20.1 °F - 17.6 °F 90% 30.12 in 10.0 mi Calm Calm - N/A   Clear
5:00 AM 19.9 °F - 16.9 °F 88% 30.11 in 10.0 mi Calm Calm - N/A   Clear
5:20 AM 21.0 °F - 18.3 °F 89% 30.11 in 10.0 mi Calm Calm - N/A   Clear
5:40 AM 21.0 °F - 18.3 °F 89% 30.12 in 10.0 mi Calm Calm - N/A   Clear
6:00 AM 20.7 °F - 17.8 °F 89% 30.11 in 10.0 mi Calm Calm - N/A   Clear
6:20 AM 19.8 °F - 17.2 °F 90% 30.12 in 7.0 mi Calm Calm - N/A   Clear
6:40 AM 18.5 °F - 15.8 °F 89% 30.12 in 10.0 mi Calm Calm - N/A   Clear
7:00 AM 18.9 °F - 16.3 °F 90% 30.13 in 10.0 mi Calm Calm - N/A   Clear
7:20 AM 18.3 °F - 15.6 °F 89% 30.13 in 10.0 mi Calm Calm - N/A   Clear
7:40 AM 18.1 °F - 15.6 °F 90% 30.12 in 10.0 mi Calm Calm - N/A   Clear
8:00 AM 17.6 °F - 14.9 °F 89% 30.13 in 7.0 mi Calm Calm - N/A   Clear
8:20 AM 17.6 °F - 14.9 °F 89% 30.13 in 7.0 mi Calm Calm - N/A   Clear
8:40 AM 19.8 °F - 16.9 °F 89% 30.14 in 7.0 mi Calm Calm - N/A   Clear
9:00 AM 21.2 °F - 18.3 °F 89% 30.14 in 7.0 mi Calm Calm - N/A   Clear
9:20 AM 23.5 °F - 20.7 °F 89% 30.14 in 7.0 mi Calm Calm - N/A   Clear
9:40 AM 25.7 °F - 22.1 °F 86% 30.14 in 10.0 mi Calm Calm - N/A   Clear
10:00 AM 30.2 °F - 24.3 °F 79% 30.14 in 10.0 mi Calm Calm - N/A   Clear
10:20 AM 32.5 °F - 24.8 °F 73% 30.14 in 10.0 mi Calm Calm - N/A   Clear
10:40 AM 34.0 °F - 25.2 °F 70% 30.13 in 10.0 mi Calm Calm - N/A   Clear
11:00 AM 36.5 °F - 25.9 °F 65% 30.12 in 10.0 mi Calm Calm - N/A   Clear
11:20 AM 37.9 °F - 25.9 °F 62% 30.12 in 10.0 mi Calm Calm - N/A   Clear
11:40 AM 40.1 °F - 25.9 °F 57% 30.11 in 10.0 mi Calm Calm - N/A   Clear
12:00 PM 42.8 °F - 26.1 °F 52% 30.09 in 10.0 mi Calm Calm - N/A   Clear
12:20 PM 42.6 °F - 26.2 °F 52% 30.08 in 10.0 mi Calm Calm - N/A   Clear
12:40 PM 44.1 °F - 26.6 °F 50% 30.06 in 10.0 mi Calm Calm - N/A   Clear
1:00 PM 44.6 °F - 26.8 °F 50% 30.05 in 10.0 mi Calm Calm - N/A   Clear
1:20 PM 45.5 °F - 27.0 °F 48% 30.04 in 10.0 mi Calm Calm - N/A   Clear
1:40 PM 45.5 °F - 27.7 °F 50% 30.03 in 10.0 mi Calm Calm - N/A   Clear
2:00 PM 47.3 °F - 27.3 °F 46% 30.03 in 10.0 mi Calm Calm - N/A   Clear
2:20 PM 49.5 °F - 27.3 °F 42% 30.02 in 10.0 mi Calm Calm - N/A   Clear
2:40 PM 49.8 °F - 28.0 °F 43% 30.02 in 10.0 mi Calm Calm - N/A   Clear
3:00 PM 50.4 °F - 27.1 °F 41% 30.02 in 10.0 mi Calm Calm - N/A   Clear
3:20 PM 50.4 °F - 28.6 °F 43% 30.02 in 10.0 mi Calm Calm - N/A   Clear
3:40 PM 51.3 °F - 29.8 °F 44% 30.02 in 10.0 mi Calm Calm - N/A   Clear
4:00 PM 52.2 °F - 28.0 °F 39% 30.02 in 10.0 mi Calm Calm - N/A   Clear
4:20 PM 50.0 °F - 30.6 °F 47% 30.02 in 10.0 mi Calm Calm - N/A   Clear
4:40 PM 50.7 °F - 28.2 °F 42% 30.03 in 10.0 mi North 4.6 mph - N/A   Clear
5:00 PM 47.5 °F - 29.5 °F 50% 30.04 in 10.0 mi West 3.5 mph - N/A   Clear
5:20 PM 44.1 °F 41.5 °F 29.7 °F 57% 30.04 in 10.0 mi West 4.6 mph - N/A   Clear
5:40 PM 43.2 °F 41.5 °F 29.3 °F 58% 30.04 in 10.0 mi West 3.5 mph - N/A   Clear
6:00 PM 38.7 °F 34.3 °F 29.5 °F 70% 30.05 in 10.0 mi West 5.8 mph - N/A   Clear
6:20 PM 37.0 °F 33.3 °F 29.3 °F 74% 30.06 in 10.0 mi West 4.6 mph - N/A   Clear
6:40 PM 35.4 °F 32.6 °F 28.9 °F 77% 30.07 in 10.0 mi NW 3.5 mph - N/A   Clear
7:00 PM 33.1 °F - 28.0 °F 82% 30.07 in 10.0 mi Calm Calm - N/A   Clear
7:20 PM 32.7 °F - 28.2 °F 83% 30.08 in 10.0 mi Calm Calm - N/A   Clear
7:40 PM 31.1 °F - 27.1 °F 85% 30.08 in 10.0 mi Calm Calm - N/A   Clear
8:00 PM 30.4 °F - 27.1 °F 88% 30.09 in 10.0 mi Calm Calm - N/A   Clear
8:20 PM 29.3 °F - 26.2 °F 88% 30.08 in 10.0 mi Calm Calm - N/A   Clear
8:40 PM 29.3 °F - 26.2 °F 88% 30.08 in 10.0 mi Calm Calm - N/A   Clear
9:00 PM 28.9 °F - 25.9 °F 88% 30.08 in 10.0 mi Calm Calm - N/A   Clear
9:20 PM 27.5 °F - 24.8 °F 90% 30.08 in 10.0 mi Calm Calm - N/A   Clear
9:40 PM 27.1 °F - 24.6 °F 90% 30.08 in 10.0 mi Calm Calm - N/A   Clear
10:00 PM 26.2 °F - 23.5 °F 90% 30.09 in 10.0 mi Calm Calm - N/A   Clear
10:20 PM 26.1 °F - 23.5 °F 90% 30.09 in 10.0 mi Calm Calm - N/A   Clear
10:40 PM 26.2 °F - 23.9 °F 91% 30.09 in 10.0 mi Calm Calm - N/A   Clear
11:00 PM 24.8 °F - 22.5 °F 91% 30.09 in 10.0 mi Calm Calm - N/A   Clear
11:20 PM 25.7 °F - 23.5 °F 92% 30.09 in 7.0 mi Calm Calm - N/A   Clear
11:40 PM 24.3 °F - 21.9 °F 91% 30.08 in 10.0 mi Calm Calm - N/A   Clear